Showing default

A-SEANSAT-PG1, 57197

Orbit data source: Space-Track

A-SEANSAT-PG1, 57197 is a payload satellite owned by ANGKASA-X (MY) in SSO that was launched on Tue, 27 Jun 2023 UTC via a SOYUZ-2-1B launch vehicle from the Vostochny Cosmodrome (VOSTO). Payload-class satellites include a variety of spacecraft equipped with specific instruments for various scientific and technological missions. These include communications satellites like Starlink; space stations such as the ISS; scientific satellites like the Hubble; Earth observation satellites from companies like Planet Labs, Umbra, and HawkEye 360; GPS; miniature CubeSats for education and research; and military/defense satellites.

Loading next visibility...
Identifier
57197, 2023-091AH
Orbit
SSO
Country
Flag of MYMY / MALA
Related business
Manufacturer
ANGKASA-X
Mission
Operational Commercial Communications
Bus & Motor
CUBESAT 6U, Unknown motor
Mass
10 kg wet, 10 kg dry
Launch date (UTC)
2023-06-27 (3 years ago)
Launch vehicle
SOYUZ-2-1B
Launch site
Vostochny Cosmodrome (VOSTO)
Object type
Payload
Rocket body
Debris
Shape & HBR
Box, 0.1 m
Radar Cross Section
0.080 m², Medium (>0.1 m² and < 1m²)

Expand to show TLE details & history
Last TLE update: 2 days ago

TLE from 2 days ago
0 A-SEANSAT-PG1
1 57197U 23091AH  26155.24859823  .00020753  00000-0  58361-3 0  9997
2 57197  97.5082 224.5583 0008626 122.8984 237.3090 15.36490364162720
Epoch: 2026-06-04T05:57Z
TLE epoch observation values (Epoch: 2026-06-04T05:57:58.887Z)
Latitude
-0.00008°
Longitude
-117.63264°
Altitude
462.796 km
Speed
7.633 km/s
True Right ascension
14h 58m 13s
True Declination
0° 00' 00"
Sunlit
Object was in full shadow at epoch
Visualization orbit readout
Latitude
Unknown
Longitude
Unknown
Altitude
Unknown
Speed
Unknown
Apparent Right ascension
Unknown
Apparent Declination
Unknown
Sunlit
N/A
Visualization observer readout
Local Sidereal Time
02:43:40
Azimuth
Unknown
Elevation
Unknown
Doppler factor
Unknown
Orbital elements
Apogee altitude
459.339 km
Perigee altitude
447.553 km
Semi-major axis
6,831.583 km
Eccentricity
0.00086
Inclination
97.5082°
RAAN
224.5583°
Arg. of periapsis
122.8984°
True anomaly
237.22586°
Mean anomaly
237.309°
Eccentric anomaly
237.26742°
Mean motion
3.8438 °/min
Orbital period
93.66 mins
BSTAR
0.00058361
Loading maneuver chart data...
Computing Atmospheric mass density...
Loading historical data...
Loading historical data...
Loading historical data...
Loading historical data...
Loading historical data...
Loading historical data...
Loading historical data...

Documentation

Showing up to 5 results
|